M I D A S
Marine Information and Data Acquisition System
Tripno 1118 of the Zeeleeuw from 2006-06-29 07:09:02 to 2006-06-29 13:32:01
Back to CruiseResearch ActivitiesStationsMapUnderway DataData graphs

EquipmentUnitsComments
TimeDGPSUTC
LatitudeDGPSDM.mWGS84
LongitudeDGPSDM.mWGS84
SpeedMeteo Stationm/sRelative wind speed
DirectionMeteo StationdegRelative wind direction
TemperatureMeteo Stationdeg CelciusAir temperature
PressureMeteo StationPaAtmospheric pressure
HumidityMeteo Station%Relative humidity
Missing or incorrect values are displayed as -999
Metereological data collected by the RV Zeeleeuw from 2006-06-29 07:06:38 to 2006-06-29 13:42:49
                                                                                    Next 1000 lines
Time Latitude Longitude Speed Direction Temperature Pressure Humidity
2006-06-29 07:06:48 51°13.603 2°56.095 1.9 310 16.9 102270 70
2006-06-29 07:06:54 51°13.603 2°56.092 2.1 325 16.9 102270 70
2006-06-29 07:06:59 51°13.604 2°56.089 1.8 303 16.9 102270 70
2006-06-29 07:07:02 51°13.604 2°56.087 1.9 28 16.8 102270 70
2006-06-29 07:07:10 51°13.606 2°56.081 1.7 334 16.8 102270 70
2006-06-29 07:07:14 51°13.607 2°56.078 1.4 320 16.8 102270 71
2006-06-29 07:07:20 51°13.609 2°56.072 1.2 301 16.8 102270 71
2006-06-29 07:07:24 51°13.61 2°56.069 1.6 26 16.8 102270 71
2006-06-29 07:07:29 51°13.611 2°56.063 1.4 304 16.8 102270 71
2006-06-29 07:07:34 51°13.613 2°56.058 1.1 27 16.8 102270 71
2006-06-29 07:07:39 51°13.615 2°56.052 1.1 309 16.8 102270 71
2006-06-29 07:07:43 51°13.616 2°56.048 0.7 319 16.8 102280 71
2006-06-29 07:07:50 51°13.619 2°56.039 0.9 302 16.8 102280 71
2006-06-29 07:07:54 51°13.62 2°56.034 0.6 30 16.8 102270 71
2006-06-29 07:07:59 51°13.622 2°56.028 0.6 308 16.8 102270 71
2006-06-29 07:08:04 51°13.625 2°56.021 1 249 16.8 102280 71
2006-06-29 07:08:10 51°13.627 2°56.013 0.8 310 16.8 102280 71
2006-06-29 07:08:14 51°13.629 2°56.008 0.8 26 16.8 102280 71
2006-06-29 07:08:19 51°13.631 2°56.001 0.8 308 16.8 102280 71
2006-06-29 07:08:24 51°13.633 2°55.993 1.3 330 16.8 102280 71
2006-06-29 07:08:30 51°13.635 2°55.984 1 346 16.8 102280 71
2006-06-29 07:08:34 51°13.637 2°55.978 0.6 344 16.8 102280 71
2006-06-29 07:08:39 51°13.639 2°55.969 0.4 355 16.8 102280 71
2006-06-29 07:08:44 51°13.642 2°55.961 0.3 357 16.9 102280 71
2006-06-29 07:08:49 51°13.645 2°55.951 0.2 60 16.9 102280 71
2006-06-29 07:08:54 51°13.648 2°55.942 0.7 24 16.9 102280 71
2006-06-29 07:09:00 51°13.652 2°55.929 1 58 16.9 102280 71
2006-06-29 07:09:03 51°13.654 2°55.924 0.8 20 16.9 102280 71
2006-06-29 07:09:09 51°13.658 2°55.911 1 50 16.9 102280 71
2006-06-29 07:09:14 51°13.661 2°55.9 1.8 26 16.9 102280 71
2006-06-29 07:09:19 51°13.665 2°55.889 2.2 52 16.9 102280 71
2006-06-29 07:09:24 51°13.668 2°55.879 2.2 29 16.9 102280 71
2006-06-29 07:09:29 51°13.671 2°55.869 1.9 58 16.9 102280 71
2006-06-29 07:09:34 51°13.673 2°55.859 1.9 28 16.9 102280 71
2006-06-29 07:09:39 51°13.676 2°55.85 2.4 45 16.9 102280 71
2006-06-29 07:09:43 51°13.678 2°55.842 2.3 30 16.8 102280 71
2006-06-29 07:09:49 51°13.681 2°55.831 3 55 16.8 102280 71
2006-06-29 07:09:54 51°13.683 2°55.821 2.3 27 16.8 102280 71
2006-06-29 07:09:59 51°13.685 2°55.813 2.2 313 16.8 102280 71
2006-06-29 07:10:04 51°13.687 2°55.804 1.7 266 16.8 102280 71
2006-06-29 07:10:10 51°13.689 2°55.795 1.5 307 16.8 102280 71
2006-06-29 07:10:14 51°13.69 2°55.789 1.8 257 16.7 102280 71
2006-06-29 07:10:19 51°13.691 2°55.783 1.5 280 16.7 102280 71
2006-06-29 07:10:23 51°13.692 2°55.778 1.3 248 16.7 102280 71
2006-06-29 07:10:29 51°13.692 2°55.773 1.1 305 16.7 102280 71
2006-06-29 07:10:34 51°13.693 2°55.77 1 25 16.7 102280 71
2006-06-29 07:10:38 51°13.693 2°55.768 1.4 306 16.7 102280 71
2006-06-29 07:10:42 51°13.694 2°55.766 1.3 316 16.7 102280 71
2006-06-29 07:10:49 51°13.694 2°55.764 1.4 323 16.7 102280 71
2006-06-29 07:10:54 51°13.695 2°55.764 1.7 316 16.7 102280 72
2006-06-29 07:10:59 51°13.695 2°55.764 2.2 326 16.7 102280 72
2006-06-29 07:11:03 51°13.696 2°55.765 2.5 327 16.7 102280 72
2006-06-29 07:11:08 51°13.697 2°55.766 2.1 303 16.7 102280 72
2006-06-29 07:11:14 51°13.698 2°55.768 1.9 319 16.7 102280 72
2006-06-29 07:11:19 51°13.699 2°55.769 1.8 306 16.7 102280 72
2006-06-29 07:11:23 51°13.7 2°55.77 1.7 326 16.7 102280 72
2006-06-29 07:11:29 51°13.701 2°55.77 1.4 326 16.7 102280 72
2006-06-29 07:11:34 51°13.702 2°55.771 1.6 320 16.7 102280 72
2006-06-29 07:11:39 51°13.703 2°55.771 1.5 329 16.7 102280 72
2006-06-29 07:11:44 51°13.703 2°55.771 1.5 327 16.7 102280 72
2006-06-29 07:11:49 51°13.703 2°55.77 1.2 351 16.7 102280 72
2006-06-29 07:11:53 51°13.702 2°55.769 0.9 338 16.7 102280 72
2006-06-29 07:11:59 51°13.701 2°55.767 0.7 18 16.7 102280 72
2006-06-29 07:12:02 51°13.7 2°55.766 0.4 9 16.7 102280 72
2006-06-29 07:12:09 51°13.698 2°55.764 0.5 301 16.7 102280 72
2006-06-29 07:12:14 51°13.697 2°55.763 0.6 316 16.7 102280 72
2006-06-29 07:12:19 51°13.696 2°55.762 0.6 281 16.7 102280 72
2006-06-29 07:12:23 51°13.696 2°55.761 0.7 351 16.7 102280 72
2006-06-29 07:12:30 51°13.697 2°55.761 1.1 336 16.7 102280 72
2006-06-29 07:12:34 51°13.697 2°55.761 1.2 343 16.7 102280 72
2006-06-29 07:12:39 51°13.698 2°55.76 1.9 340 16.7 102280 72
2006-06-29 07:12:43 51°13.699 2°55.76 1.9 350 16.7 102280 73
2006-06-29 07:12:50 51°13.701 2°55.76 1.7 345 16.7 102280 73
2006-06-29 07:12:54 51°13.702 2°55.759 2.1 346 16.8 102280 73
2006-06-29 07:12:59 51°13.704 2°55.758 1.9 3 16.8 102280 73
2006-06-29 07:13:03 51°13.706 2°55.758 2 7 16.8 102280 72
2006-06-29 07:13:09 51°13.708 2°55.757 1.8 2 16.8 102280 72
2006-06-29 07:13:14 51°13.71 2°55.755 1.9 353 16.8 102280 72
2006-06-29 07:13:19 51°13.713 2°55.753 2.6 341 16.8 102280 72
2006-06-29 07:13:24 51°13.716 2°55.75 2.9 352 16.8 102280 72
2006-06-29 07:13:29 51°13.719 2°55.747 3.2 352 16.8 102280 72
2006-06-29 07:13:34 51°13.723 2°55.742 3.7 359 16.8 102280 72
2006-06-29 07:13:39 51°13.728 2°55.736 4 354 16.8 102280 72
2006-06-29 07:13:44 51°13.734 2°55.73 4.1 355 16.7 102280 72
2006-06-29 07:13:49 51°13.739 2°55.723 3.5 350 16.7 102280 72
2006-06-29 07:13:53 51°13.744 2°55.716 3.6 338 16.7 102280 71
2006-06-29 07:13:59 51°13.753 2°55.706 4.8 342 16.7 102280 71
2006-06-29 07:14:04 51°13.76 2°55.697 2.6 348 16.7 102280 71
2006-06-29 07:14:08 51°13.766 2°55.69 5.1 347 16.7 102280 71
2006-06-29 07:14:14 51°13.776 2°55.679 4.3 349 16.6 102280 71
2006-06-29 07:14:18 51°13.783 2°55.672 4.2 281 16.6 102280 71
2006-06-29 07:14:24 51°13.794 2°55.661 4.2 341 16.5 102280 71
2006-06-29 07:14:29 51°13.803 2°55.653 4.1 346 16.5 102280 71
2006-06-29 07:14:34 51°13.812 2°55.645 3.9 345 16.5 102280 71
2006-06-29 07:14:39 51°13.822 2°55.637 3.5 345 16.5 102280 71
2006-06-29 07:14:44 51°13.832 2°55.628 4.1 353 16.4 102280 71
2006-06-29 07:14:49 51°13.842 2°55.621 4.7 343 16.4 102280 71
2006-06-29 07:14:54 51°13.852 2°55.613 4.1 344 16.4 102280 72
2006-06-29 07:14:58 51°13.86 2°55.607 4.5 344 16.4 102280 72
2006-06-29 07:15:04 51°13.873 2°55.598 4.1 350 16.3 102280 72
2006-06-29 07:15:09 51°13.883 2°55.59 4.4 348 16.3 102280 72
2006-06-29 07:15:13 51°13.892 2°55.584 4.2 348 16.2 102280 72
2006-06-29 07:15:18 51°13.903 2°55.577 4.4 349 16.2 102280 72
2006-06-29 07:15:22 51°13.911 2°55.571 4 350 16.2 102280 73
2006-06-29 07:15:29 51°13.926 2°55.56 4 352 16.2 102280 73
2006-06-29 07:15:34 51°13.937 2°55.553 3.5 351 16.1 102280 73
2006-06-29 07:15:39 51°13.948 2°55.545 4.1 349 16.1 102280 73
2006-06-29 07:15:44 51°13.959 2°55.537 4.2 348 16.1 102280 73
2006-06-29 07:15:49 51°13.97 2°55.53 4.2 350 16.1 102280 73
2006-06-29 07:15:54 51°13.981 2°55.522 4.2 349 16 102280 73
2006-06-29 07:15:59 51°13.992 2°55.514 4.1 348 16 102280 73
2006-06-29 07:16:04 51°14.004 2°55.506 3.9 349 16 102280 73
2006-06-29 07:16:09 51°14.015 2°55.499 3.7 344 16 102280 73
2006-06-29 07:16:14 51°14.026 2°55.491 4.6 347 15.9 102280 74
2006-06-29 07:16:19 51°14.038 2°55.483 5.2 279 15.9 102280 74
2006-06-29 07:16:24 51°14.049 2°55.475 4.8 341 15.9 102280 74
2006-06-29 07:16:29 51°14.061 2°55.467 5.8 340 15.9 102280 74
2006-06-29 07:16:34 51°14.072 2°55.458 6.2 339 15.9 102280 74
2006-06-29 07:16:39 51°14.083 2°55.45 5.8 345 15.9 102280 74
2006-06-29 07:16:44 51°14.095 2°55.442 5.4 345 15.9 102280 75
2006-06-29 07:16:49 51°14.106 2°55.433 5.2 343 15.9 102280 75
2006-06-29 07:16:54 51°14.117 2°55.425 5 340 15.8 102280 75
2006-06-29 07:16:59 51°14.129 2°55.417 5.3 340 15.8 102280 75
2006-06-29 07:17:03 51°14.138 2°55.41 5.2 344 15.8 102270 75
2006-06-29 07:17:09 51°14.151 2°55.399 5.1 344 15.8 102270 75
2006-06-29 07:17:14 51°14.162 2°55.389 4.7 345 15.8 102280 75
2006-06-29 07:17:19 51°14.172 2°55.378 5.3 343 15.8 102280 75
2006-06-29 07:17:24 51°14.183 2°55.367 5.3 345 15.8 102280 75
2006-06-29 07:17:28 51°14.192 2°55.357 5.4 345 15.8 102280 75
2006-06-29 07:17:34 51°14.204 2°55.342 5.8 345 15.7 102280 75
2006-06-29 07:17:38 51°14.213 2°55.331 5.6 343 15.7 102280 75
2006-06-29 07:17:44 51°14.226 2°55.313 6 343 15.7 102280 75
2006-06-29 07:17:48 51°14.234 2°55.3 6 343 15.7 102280 75
2006-06-29 07:17:54 51°14.247 2°55.281 5.5 343 15.7 102270 75
2006-06-29 07:17:59 51°14.258 2°55.264 6.2 343 15.7 102270 75
2006-06-29 07:18:03 51°14.266 2°55.25 6.4 339 15.7 102270 76
2006-06-29 07:18:08 51°14.277 2°55.232 6.1 343 15.7 102270 76
2006-06-29 07:18:14 51°14.289 2°55.21 6.2 342 15.7 102270 76
2006-06-29 07:18:18 51°14.298 2°55.194 6.4 279 15.7 102270 76
2006-06-29 07:18:22 51°14.306 2°55.179 6.5 344 15.7 102270 76
2006-06-29 07:18:29 51°14.322 2°55.152 6.1 345 15.7 102270 76
2006-06-29 07:18:34 51°14.332 2°55.131 5.7 342 15.7 102270 76
2006-06-29 07:18:39 51°14.343 2°55.111 6.3 345 15.7 102270 76
2006-06-29 07:18:43 51°14.351 2°55.094 6.4 334 15.7 102270 77
2006-06-29 07:18:48 51°14.361 2°55.073 5.9 338 15.7 102270 77
2006-06-29 07:18:54 51°14.374 2°55.048 6.5 347 15.7 102270 76
2006-06-29 07:18:58 51°14.382 2°55.03 6.6 347 15.7 102270 76
2006-06-29 07:19:02 51°14.39 2°55.012 6.3 347 15.7 102270 76
2006-06-29 07:19:09 51°14.403 2°54.98 6.3 346 15.7 102270 76
2006-06-29 07:19:14 51°14.413 2°54.957 6.1 345 15.6 102270 77
2006-06-29 07:19:18 51°14.42 2°54.939 7.1 346 15.6 102270 77
2006-06-29 07:19:24 51°14.431 2°54.909 6.9 347 15.6 102270 76
2006-06-29 07:19:29 51°14.439 2°54.884 6.2 346 15.6 102270 76
2006-06-29 07:19:34 51°14.445 2°54.858 5.8 345 15.6 102270 77
2006-06-29 07:19:39 51°14.451 2°54.83 5.6 345 15.6 102270 77
2006-06-29 07:19:44 51°14.456 2°54.802 5.7 347 15.6 102270 77
2006-06-29 07:19:49 51°14.46 2°54.774 5.7 344 15.6 102270 77
2006-06-29 07:19:54 51°14.462 2°54.745 5.6 345 15.5 102270 77
2006-06-29 07:19:59 51°14.464 2°54.715 4.9 343 15.5 102270 77
2006-06-29 07:20:04 51°14.465 2°54.685 4.9 343 15.5 102270 77
2006-06-29 07:20:09 51°14.465 2°54.656 4.9 341 15.5 102270 77
2006-06-29 07:20:14 51°14.465 2°54.626 4.4 341 15.5 102270 77
2006-06-29 07:20:19 51°14.463 2°54.595 4.4 278 15.5 102270 77
2006-06-29 07:20:24 51°14.462 2°54.565 4.3 340 15.4 102270 77
2006-06-29 07:20:29 51°14.46 2°54.535 4 340 15.4 102270 77
2006-06-29 07:20:34 51°14.457 2°54.505 4 337 15.5 102270 77
2006-06-29 07:20:39 51°14.454 2°54.474 3.9 340 15.5 102270 77
2006-06-29 07:20:44 51°14.45 2°54.444 4.2 343 15.4 102280 77
2006-06-29 07:20:47 51°14.447 2°54.426 4.5 342 15.4 102280 77
2006-06-29 07:20:54 51°14.441 2°54.385 4.5 343 15.4 102270 77
2006-06-29 07:20:58 51°14.435 2°54.363 4.7 343 15.4 102270 77
2006-06-29 07:21:04 51°14.426 2°54.328 4.8 339 15.4 102280 78
2006-06-29 07:21:08 51°14.42 2°54.306 4.4 338 15.4 102280 78
2006-06-29 07:21:14 51°14.41 2°54.274 4.1 340 15.4 102280 78
2006-06-29 07:21:19 51°14.401 2°54.248 4 335 15.4 102280 78
2006-06-29 07:21:24 51°14.392 2°54.221 4 341 15.5 102270 78
2006-06-29 07:21:26 51°14.389 2°54.21 4.4 338 15.5 102270 78
2006-06-29 07:21:34 51°14.374 2°54.168 4.3 335 15.5 102270 78
2006-06-29 07:21:39 51°14.365 2°54.141 4.3 337 15.5 102270 78
2006-06-29 07:21:44 51°14.354 2°54.114 4.5 334 15.4 102270 78
2006-06-29 07:21:49 51°14.345 2°54.088 4.3 334 15.4 102270 78
2006-06-29 07:21:54 51°14.335 2°54.062 4.2 332 15.4 102270 78
2006-06-29 07:21:59 51°14.325 2°54.036 4.2 334 15.4 102270 78
2006-06-29 07:22:04 51°14.315 2°54.009 4.2 337 15.5 102270 78
2006-06-29 07:22:09 51°14.304 2°53.984 4.1 335 15.5 102270 78
2006-06-29 07:22:14 51°14.294 2°53.958 3.9 337 15.4 102270 78
2006-06-29 07:22:19 51°14.283 2°53.933 3.7 280 15.4 102270 78
2006-06-29 07:22:23 51°14.274 2°53.913 3.8 332 15.4 102270 78
2006-06-29 07:22:27 51°14.265 2°53.892 3.7 332 15.4 102270 78
2006-06-29 07:22:34 51°14.249 2°53.859 4 330 15.4 102270 78
2006-06-29 07:22:39 51°14.238 2°53.834 3.7 331 15.4 102270 78
2006-06-29 07:22:44 51°14.225 2°53.809 3.6 331 15.4 102270 78
2006-06-29 07:22:49 51°14.214 2°53.784 3.7 331 15.4 102270 78
2006-06-29 07:22:53 51°14.205 2°53.765 3.9 330 15.4 102270 78
2006-06-29 07:22:59 51°14.192 2°53.735 3.8 332 15.4 102270 78
2006-06-29 07:23:04 51°14.18 2°53.71 4 330 15.4 102270 78
2006-06-29 07:23:09 51°14.17 2°53.684 4.1 331 15.4 102270 78
2006-06-29 07:23:14 51°14.158 2°53.659 3.9 329 15.4 102280 78
2006-06-29 07:23:19 51°14.149 2°53.632 3.9 332 15.4 102280 78
2006-06-29 07:23:24 51°14.138 2°53.606 3.5 335 15.5 102270 78
2006-06-29 07:23:29 51°14.13 2°53.578 3.9 343 15.5 102270 78
2006-06-29 07:23:33 51°14.122 2°53.558 4.1 335 15.4 102270 78
2006-06-29 07:23:39 51°14.111 2°53.525 4.6 338 15.4 102270 78
2006-06-29 07:23:43 51°14.104 2°53.503 4.4 334 15.5 102270 78
2006-06-29 07:23:49 51°14.093 2°53.471 4.5 337 15.5 102270 78
2006-06-29 07:23:53 51°14.085 2°53.449 4.6 338 15.5 102270 79
2006-06-29 07:23:59 51°14.073 2°53.417 4.4 336 15.5 102270 79
2006-06-29 07:24:04 51°14.062 2°53.391 4.4 334 15.5 102270 79
2006-06-29 07:24:09 51°14.054 2°53.364 4.3 337 15.5 102270 79
2006-06-29 07:24:14 51°14.042 2°53.339 4.9 336 15.5 102270 79
2006-06-29 07:24:18 51°14.035 2°53.317 4.3 278 15.5 102270 79
2006-06-29 07:24:23 51°14.025 2°53.292 4.6 338 15.5 102270 79
2006-06-29 07:24:27 51°14.017 2°53.27 4.7 337 15.5 102270 79
2006-06-29 07:24:34 51°14.002 2°53.234 4.6 339 15.5 102270 79
2006-06-29 07:24:39 51°13.992 2°53.208 4.4 336 15.5 102270 79
2006-06-29 07:24:44 51°13.981 2°53.182 4.4 341 15.5 102270 79
2006-06-29 07:24:48 51°13.973 2°53.161 4.1 339 15.5 102270 79
2006-06-29 07:24:54 51°13.96 2°53.13 4.7 339 15.5 102270 79
2006-06-29 07:24:59 51°13.95 2°53.104 4.8 337 15.5 102270 79
2006-06-29 07:25:04 51°13.939 2°53.078 4.6 337 15.5 102270 78
2006-06-29 07:25:09 51°13.929 2°53.051 4.4 334 15.5 102270 78
2006-06-29 07:25:14 51°13.919 2°53.025 4.2 336 15.5 102270 78
2006-06-29 07:25:19 51°13.908 2°53 4.3 337 15.5 102270 78
2006-06-29 07:25:24 51°13.898 2°52.972 4.4 337 15.5 102270 79
2006-06-29 07:25:29 51°13.888 2°52.947 4.2 338 15.5 102270 79
2006-06-29 07:25:33 51°13.88 2°52.925 4.6 339 15.5 102270 79
2006-06-29 07:25:39 51°13.867 2°52.894 4.3 339 15.5 102270 79
2006-06-29 07:25:43 51°13.859 2°52.873 4.3 337 15.5 102270 79
2006-06-29 07:25:49 51°13.847 2°52.842 4.4 342 15.5 102270 79
2006-06-29 07:25:53 51°13.838 2°52.821 4.3 336 15.5 102270 78
2006-06-29 07:25:59 51°13.825 2°52.79 4 337 15.5 102270 78
2006-06-29 07:26:04 51°13.815 2°52.764 4.1 338 15.5 102270 78
2006-06-29 07:26:09 51°13.803 2°52.74 4.1 336 15.5 102270 78
2006-06-29 07:26:14 51°13.793 2°52.714 4.1 337 15.5 102270 79
2006-06-29 07:26:19 51°13.781 2°52.69 4.4 284 15.5 102270 79
2006-06-29 07:26:24 51°13.77 2°52.664 4 337 15.5 102270 79
2006-06-29 07:26:29 51°13.759 2°52.64 3.8 337 15.5 102270 79
2006-06-29 07:26:33 51°13.75 2°52.62 4 339 15.6 102270 79
2006-06-29 07:26:39 51°13.737 2°52.589 3.9 335 15.6 102270 79
2006-06-29 07:26:42 51°13.73 2°52.574 4.2 339 15.6 102270 78
2006-06-29 07:26:49 51°13.716 2°52.537 4 337 15.6 102270 78
2006-06-29 07:26:54 51°13.707 2°52.51 3.9 341 15.5 102270 78
2006-06-29 07:26:58 51°13.699 2°52.489 4 340 15.5 102270 78
2006-06-29 07:27:04 51°13.689 2°52.455 4 339 15.5 102280 78
2006-06-29 07:27:09 51°13.68 2°52.428 4 339 15.5 102280 78
2006-06-29 07:27:13 51°13.673 2°52.406 4 337 15.6 102280 78
2006-06-29 07:27:19 51°13.664 2°52.372 4.1 280 15.6 102280 78
2006-06-29 07:27:23 51°13.657 2°52.35 4.4 343 15.5 102270 78
2006-06-29 07:27:28 51°13.649 2°52.321 4.3 335 15.5 102270 78
2006-06-29 07:27:34 51°13.64 2°52.288 4.1 340 15.5 102280 78
2006-06-29 07:27:38 51°13.633 2°52.265 5 338 15.5 102280 78
2006-06-29 07:27:44 51°13.623 2°52.231 5.1 342 15.5 102280 78
2006-06-29 07:27:48 51°13.616 2°52.209 5 340 15.5 102280 78
2006-06-29 07:27:54 51°13.606 2°52.176 5.3 342 15.5 102270 78
2006-06-29 07:27:59 51°13.597 2°52.148 4.8 343 15.5 102270 78
2006-06-29 07:28:04 51°13.589 2°52.12 4.7 341 15.5 102270 79
2006-06-29 07:28:09 51°13.581 2°52.092 4.2 341 15.5 102270 79
2006-06-29 07:28:14 51°13.572 2°52.064 4.4 338 15.5 102270 78
2006-06-29 07:28:19 51°13.564 2°52.037 4.6 341 15.5 102270 78
2006-06-29 07:28:24 51°13.555 2°52.008 4.4 339 15.5 102270 78
2006-06-29 07:28:29 51°13.546 2°51.981 4.3 339 15.5 102270 78
2006-06-29 07:28:34 51°13.537 2°51.954 4.3 339 15.5 102270 78
2006-06-29 07:28:39 51°13.527 2°51.927 4.1 338 15.5 102270 78
2006-06-29 07:28:44 51°13.518 2°51.9 4 341 15.5 102270 79
2006-06-29 07:28:49 51°13.508 2°51.874 4 337 15.5 102270 79
2006-06-29 07:28:54 51°13.498 2°51.847 2.6 342 15.5 102270 78
2006-06-29 07:28:59 51°13.488 2°51.82 4.2 337 15.5 102270 78
2006-06-29 07:29:03 51°13.479 2°51.799 4.1 343 15.5 102270 78
2006-06-29 07:29:09 51°13.467 2°51.768 3.9 335 15.5 102270 78
2006-06-29 07:29:14 51°13.457 2°51.742 4.1 338 15.5 102270 78
2006-06-29 07:29:19 51°13.447 2°51.715 4.1 279 15.5 102270 78
2006-06-29 07:29:24 51°13.437 2°51.688 3.9 336 15.5 102270 78
2006-06-29 07:29:28 51°13.429 2°51.666 4.1 336 15.5 102270 78
2006-06-29 07:29:34 51°13.419 2°51.634 3.9 336 15.5 102270 79
2006-06-29 07:29:38 51°13.411 2°51.612 3.8 335 15.5 102270 79
2006-06-29 07:29:44 51°13.401 2°51.578 4.2 335 15.5 102270 79
2006-06-29 07:29:48 51°13.393 2°51.556 4.1 337 15.5 102270 79
2006-06-29 07:29:54 51°13.383 2°51.524 4.2 341 15.5 102270 78
2006-06-29 07:29:59 51°13.375 2°51.496 4.4 343 15.5 102270 78
2006-06-29 07:30:04 51°13.366 2°51.467 4.6 343 15.5 102270 78
2006-06-29 07:30:09 51°13.357 2°51.44 4.3 344 15.5 102270 78
2006-06-29 07:30:14 51°13.349 2°51.413 3.9 340 15.4 102270 78
2006-06-29 07:30:19 51°13.339 2°51.386 4.3 342 15.4 102270 78
2006-06-29 07:30:24 51°13.33 2°51.358 3.8 340 15.5 102270 79
2006-06-29 07:30:29 51°13.32 2°51.332 3.8 339 15.5 102270 79
2006-06-29 07:30:33 51°13.313 2°51.31 4.9 339 15.5 102270 79
2006-06-29 07:30:39 51°13.301 2°51.279 4.3 342 15.5 102270 79
2006-06-29 07:30:43 51°13.293 2°51.257 4.1 341 15.5 102270 79
2006-06-29 07:30:49 51°13.28 2°51.227 4.2 341 15.5 102270 79
2006-06-29 07:30:53 51°13.271 2°51.206 4.2 339 15.5 102270 79
2006-06-29 07:30:59 51°13.258 2°51.175 4.3 340 15.5 102270 79
2006-06-29 07:31:04 51°13.247 2°51.15 4 337 15.5 102270 79
2006-06-29 07:31:09 51°13.237 2°51.124 4 340 15.5 102270 79
2006-06-29 07:31:14 51°13.226 2°51.098 3.9 338 15.5 102260 79
2006-06-29 07:31:18 51°13.218 2°51.077 4.1 279 15.5 102260 79
2006-06-29 07:31:23 51°13.208 2°51.05 3.8 339 15.5 102260 79
2006-06-29 07:31:27 51°13.201 2°51.029 3.9 339 15.5 102260 79
2006-06-29 07:31:34 51°13.187 2°50.991 4.1 340 15.5 102260 79
2006-06-29 07:31:39 51°13.178 2°50.964 3.9 339 15.5 102260 79
2006-06-29 07:31:44 51°13.168 2°50.937 3.8 343 15.5 102270 79
2006-06-29 07:31:48 51°13.161 2°50.915 3.7 341 15.5 102270 79
2006-06-29 07:31:54 51°13.15 2°50.883 3.7 342 15.5 102270 79
2006-06-29 07:31:59 51°13.14 2°50.856 3.6 341 15.5 102270 79
2006-06-29 07:32:04 51°13.131 2°50.828 3.9 344 15.5 102270 79
2006-06-29 07:32:09 51°13.122 2°50.801 3.6 342 15.5 102270 79
2006-06-29 07:32:14 51°13.113 2°50.774 3.3 342 15.5 102260 79
2006-06-29 07:32:19 51°13.104 2°50.747 3.4 342 15.5 102260 79
2006-06-29 07:32:24 51°13.094 2°50.719 3.3 342 15.5 102260 79
2006-06-29 07:32:29 51°13.085 2°50.692 3.8 340 15.5 102260 79
2006-06-29 07:32:33 51°13.078 2°50.67 3.7 338 15.5 102260 79
2006-06-29 07:32:39 51°13.066 2°50.638 3.9 338 15.5 102260 79
2006-06-29 07:32:43 51°13.059 2°50.616 4.7 339 15.4 102260 79
2006-06-29 07:32:49 51°13.047 2°50.584 3.9 342 15.4 102260 79
2006-06-29 07:32:53 51°13.039 2°50.563 3.8 338 15.5 102260 79
2006-06-29 07:32:59 51°13.027 2°50.531 3.6 339 15.5 102260 79
2006-06-29 07:33:04 51°13.016 2°50.505 3.6 337 15.5 102260 79
2006-06-29 07:33:09 51°13.005 2°50.479 4 342 15.5 102260 79
2006-06-29 07:33:14 51°12.994 2°50.454 3.9 337 15.5 102260 79
2006-06-29 07:33:18 51°12.986 2°50.433 3.5 283 15.5 102260 79
2006-06-29 07:33:22 51°12.977 2°50.413 3.5 340 15.4 102260 79
2006-06-29 07:33:29 51°12.963 2°50.376 3.4 339 15.4 102260 79
2006-06-29 07:33:34 51°12.953 2°50.35 3.5 340 15.4 102260 79
2006-06-29 07:33:39 51°12.943 2°50.323 4.1 341 15.4 102260 79
2006-06-29 07:33:44 51°12.933 2°50.296 4 345 15.5 102260 79
2006-06-29 07:33:49 51°12.923 2°50.27 3.9 338 15.5 102260 79
2006-06-29 07:33:54 51°12.916 2°50.246 4.1 343 15.4 102260 79
2006-06-29 07:33:59 51°12.906 2°50.22 3.9 337 15.4 102260 79
2006-06-29 07:34:04 51°12.897 2°50.192 3.4 342 15.4 102260 79
2006-06-29 07:34:08 51°12.89 2°50.171 4.2 336 15.4 102260 79
2006-06-29 07:34:14 51°12.879 2°50.138 4.2 341 15.4 102260 79
2006-06-29 07:34:20 51°12.868 2°50.106 4.1 285 15.4 102260 79
2006-06-29 07:34:24 51°12.86 2°50.084 4.5 340 15.4 102260 79
2006-06-29 07:34:30 51°12.849 2°50.051 3.7 339 15.4 102260 79
2006-06-29 07:34:35 51°12.839 2°50.024 3.7 339 15.4 102260 79
2006-06-29 07:34:40 51°12.83 2°49.997 3.7 341 15.4 102260 79
2006-06-29 07:34:44 51°12.822 2°49.975 3.8 339 15.5 102260 79
2006-06-29 07:34:50 51°12.812 2°49.942 3.8 339 15.5 102260 79
2006-06-29 07:34:54 51°12.804 2°49.921 3.8 337 15.5 102260 79
2006-06-29 07:35:00 51°12.793 2°49.888 3.6 340 15.5 102260 79
2006-06-29 07:35:04 51°12.785 2°49.866 3.8 342 15.5 102260 79
2006-06-29 07:35:10 51°12.774 2°49.833 3.6 342 15.5 102260 79
2006-06-29 07:35:14 51°12.767 2°49.811 3.6 342 15.5 102260 79
2006-06-29 07:35:20 51°12.756 2°49.778 3.6 341 15.5 102260 79
2006-06-29 07:35:24 51°12.749 2°49.756 3.6 342 15.5 102260 79
2006-06-29 07:35:30 51°12.738 2°49.724 3.6 340 15.5 102260 79
2006-06-29 07:35:34 51°12.73 2°49.702 3.8 343 15.4 102260 79
2006-06-29 07:35:40 51°12.719 2°49.67 3.6 338 15.4 102260 79
2006-06-29 07:35:44 51°12.711 2°49.648 3.8 344 15.4 102260 79
2006-06-29 07:35:50 51°12.7 2°49.615 3.9 337 15.4 102260 79
2006-06-29 07:35:55 51°12.69 2°49.588 4 338 15.4 102260 79
2006-06-29 07:36:00 51°12.681 2°49.561 4 336 15.4 102260 79
2006-06-29 07:36:04 51°12.674 2°49.539 3.9 340 15.4 102260 79
2006-06-29 07:36:10 51°12.662 2°49.506 4.2 338 15.4 102260 79
2006-06-29 07:36:14 51°12.655 2°49.483 4.5 338 15.5 102260 79
2006-06-29 07:36:20 51°12.644 2°49.451 4.3 287 15.5 102260 79
2006-06-29 07:36:24 51°12.636 2°49.43 4.4 338 15.5 102260 79
2006-06-29 07:36:30 51°12.625 2°49.397 4.5 340 15.5 102260 79
2006-06-29 07:36:34 51°12.617 2°49.376 4.3 340 15.5 102260 79
2006-06-29 07:36:40 51°12.606 2°49.344 3.8 338 15.5 102260 79
2006-06-29 07:36:44 51°12.598 2°49.322 3.9 336 15.5 102260 80
2006-06-29 07:36:50 51°12.586 2°49.29 3.8 340 15.5 102260 80
2006-06-29 07:36:54 51°12.578 2°49.269 3.9 342 15.5 102260 80
2006-06-29 07:37:00 51°12.566 2°49.238 3.9 335 15.5 102260 80
2006-06-29 07:37:04 51°12.558 2°49.215 2.6 336 15.5 102260 80
2006-06-29 07:37:08 51°12.55 2°49.194 3.5 335 15.5 102260 80
2006-06-29 07:37:14 51°12.539 2°49.161 3.4 341 15.5 102260 80
2006-06-29 07:37:19 51°12.529 2°49.134 3.8 337 15.5 102260 80
2006-06-29 07:37:24 51°12.52 2°49.106 4 340 15.5 102260 79
2006-06-29 07:37:29 51°12.511 2°49.08 4.1 339 15.5 102260 79
2006-06-29 07:37:34 51°12.501 2°49.053 4.1 342 15.5 102260 79
2006-06-29 07:37:38 51°12.494 2°49.031 3.9 340 15.5 102260 79
2006-06-29 07:37:43 51°12.484 2°49.004 3.7 338 15.5 102260 79
2006-06-29 07:37:49 51°12.472 2°48.972 3.6 340 15.5 102260 79
2006-06-29 07:37:54 51°12.462 2°48.945 3.7 338 15.5 102260 79
2006-06-29 07:37:59 51°12.453 2°48.918 3.4 335 15.5 102260 79
2006-06-29 07:38:04 51°12.443 2°48.892 3.4 336 15.5 102260 79
2006-06-29 07:38:10 51°12.431 2°48.86 3.7 334 15.5 102260 79
2006-06-29 07:38:14 51°12.423 2°48.839 3.9 340 15.5 102260 79
2006-06-29 07:38:19 51°12.413 2°48.812 3.8 286 15.5 102260 79
2006-06-29 07:38:24 51°12.403 2°48.785 3.9 339 15.5 102260 79
2006-06-29 07:38:28 51°12.395 2°48.764 3.9 332 15.5 102260 79
2006-06-29 07:38:34 51°12.382 2°48.733 3.8 339 15.5 102260 79
2006-06-29 07:38:38 51°12.374 2°48.712 4.1 335 15.5 102260 79
2006-06-29 07:38:44 51°12.362 2°48.679 4.4 340 15.5 102260 79
2006-06-29 07:38:50 51°12.35 2°48.648 3.9 337 15.5 102260 79
2006-06-29 07:38:54 51°12.342 2°48.626 4.1 340 15.5 102260 79
2006-06-29 07:39:00 51°12.331 2°48.594 4.1 340 15.5 102260 79
2006-06-29 07:39:04 51°12.324 2°48.572 4.4 339 15.5 102270 79
2006-06-29 07:39:09 51°12.314 2°48.545 4.1 338 15.5 102270 79
2006-06-29 07:39:13 51°12.306 2°48.524 4 340 15.5 102260 79
2006-06-29 07:39:19 51°12.295 2°48.492 4 338 15.5 102260 79
2006-06-29 07:39:24 51°12.285 2°48.464 4.3 333 15.5 102260 79
2006-06-29 07:39:27 51°12.279 2°48.448 4 337 15.5 102260 79
2006-06-29 07:39:34 51°12.267 2°48.41 3.8 339 15.5 102260 79
2006-06-29 07:39:40 51°12.255 2°48.378 3.7 332 15.5 102260 79
2006-06-29 07:39:44 51°12.248 2°48.356 3.8 341 15.5 102270 79
2006-06-29 07:39:48 51°12.24 2°48.334 4.4 340 15.5 102270 79
2006-06-29 07:39:53 51°12.231 2°48.307 4 342 15.6 102270 79
2006-06-29 07:39:58 51°12.221 2°48.281 3.6 339 15.6 102270 79
2006-06-29 07:40:04 51°12.21 2°48.248 3.9 339 15.6 102270 79
2006-06-29 07:40:10 51°12.198 2°48.217 4.3 339 15.6 102270 79
2006-06-29 07:40:14 51°12.19 2°48.195 4 343 15.6 102270 79
2006-06-29 07:40:20 51°12.178 2°48.163 3.9 284 15.6 102270 79
2006-06-29 07:40:24 51°12.171 2°48.141 4 337 15.5 102270 78
2006-06-29 07:40:30 51°12.159 2°48.11 4.3 335 15.5 102270 78
2006-06-29 07:40:34 51°12.151 2°48.088 4.4 344 15.5 102270 78
2006-06-29 07:40:39 51°12.141 2°48.061 3.8 336 15.5 102270 78
2006-06-29 07:40:44 51°12.132 2°48.034 4.2 341 15.5 102270 79
2006-06-29 07:40:50 51°12.12 2°48.002 3.8 340 15.5 102270 79
2006-06-29 07:40:54 51°12.113 2°47.98 4 340 15.5 102270 79
2006-06-29 07:41:00 51°12.102 2°47.947 4.3 341 15.5 102270 79
2006-06-29 07:41:04 51°12.094 2°47.925 4.1 341 15.6 102270 79
2006-06-29 07:41:10 51°12.083 2°47.893 4.1 342 15.6 102270 79
2006-06-29 07:41:14 51°12.075 2°47.871 3.8 338 15.5 102270 79
2006-06-29 07:41:20 51°12.064 2°47.839 4 339 15.5 102270 79
2006-06-29 07:41:24 51°12.056 2°47.817 3.6 337 15.5 102270 79
2006-06-29 07:41:28 51°12.048 2°47.796 3.8 340 15.5 102270 79
2006-06-29 07:41:34 51°12.036 2°47.763 3.9 337 15.5 102270 79
2006-06-29 07:41:39 51°12.026 2°47.736 4 338 15.5 102270 79
2006-06-29 07:41:44 51°12.016 2°47.71 4.1 338 15.5 102270 79
2006-06-29 07:41:50 51°12.004 2°47.677 3.9 336 15.5 102270 79
2006-06-29 07:41:54 51°11.996 2°47.655 4.1 339 15.6 102260 79
2006-06-29 07:41:59 51°11.987 2°47.627 3.7 339 15.6 102260 79
2006-06-29 07:42:03 51°11.979 2°47.606 3.6 341 15.5 102270 79
2006-06-29 07:42:08 51°11.97 2°47.578 4.1 340 15.5 102270 79
2006-06-29 07:42:14 51°11.958 2°47.545 3.8 341 15.5 102270 79
2006-06-29 07:42:20 51°11.947 2°47.513 3.6 281 15.5 102270 79
2006-06-29 07:42:24 51°11.939 2°47.49 3.7 341 15.5 102270 79
2006-06-29 07:42:30 51°11.927 2°47.458 3.7 341 15.5 102270 79
2006-06-29 07:42:34 51°11.919 2°47.436 3.7 338 15.5 102270 79
2006-06-29 07:42:38 51°11.912 2°47.415 3.6 339 15.5 102270 79
2006-06-29 07:42:44 51°11.899 2°47.382 3.7 339 15.5 102270 79
2006-06-29 07:42:50 51°11.888 2°47.35 3.7 340 15.5 102270 79
2006-06-29 07:42:54 51°11.88 2°47.328 3.7 340 15.5 102270 79
2006-06-29 07:42:59 51°11.871 2°47.3 3.6 338 15.5 102270 79
2006-06-29 07:43:04 51°11.861 2°47.273 3.8 340 15.5 102270 79
2006-06-29 07:43:08 51°11.854 2°47.25 3.7 337 15.5 102270 79
2006-06-29 07:43:14 51°11.842 2°47.218 3.5 337 15.5 102270 79
2006-06-29 07:43:20 51°11.83 2°47.185 3.6 338 15.5 102270 79
2006-06-29 07:43:23 51°11.825 2°47.168 4.5 339 15.5 102270 79
2006-06-29 07:43:30 51°11.811 2°47.129 4.3 338 15.5 102270 79
2006-06-29 07:43:34 51°11.804 2°47.107 4.1 338 15.5 102270 79
2006-06-29 07:43:40 51°11.793 2°47.074 3.7 339 15.5 102270 79
2006-06-29 07:43:44 51°11.785 2°47.052 3.9 340 15.5 102270 79
2006-06-29 07:43:49 51°11.776 2°47.024 3.5 339 15.5 102270 79
2006-06-29 07:43:53 51°11.768 2°47.002 3.7 341 15.5 102270 79
2006-06-29 07:43:59 51°11.757 2°46.97 3.6 335 15.5 102270 79
2006-06-29 07:44:04 51°11.747 2°46.942 3.6 340 15.5 102270 79
2006-06-29 07:44:10 51°11.734 2°46.911 3.2 337 15.5 102270 79
2006-06-29 07:44:14 51°11.726 2°46.89 3.4 336 15.5 102270 79
2006-06-29 07:44:19 51°11.715 2°46.864 3.5 279 15.5 102270 79
2006-06-29 07:44:23 51°11.706 2°46.843 3.6 336 15.5 102270 79
2006-06-29 07:44:28 51°11.695 2°46.817 3.3 335 15.5 102270 79
2006-06-29 07:44:34 51°11.682 2°46.786 3.3 338 15.5 102270 79
2006-06-29 07:44:39 51°11.672 2°46.76 3.4 335 15.5 102270 79
2006-06-29 07:44:44 51°11.661 2°46.733 3.5 336 15.5 102270 79
2006-06-29 07:44:50 51°11.65 2°46.7 3.4 338 15.5 102270 79
2006-06-29 07:44:54 51°11.642 2°46.678 3.3 336 15.5 102270 79
2006-06-29 07:45:00 51°11.631 2°46.646 3.6 336 15.5 102270 79
2006-06-29 07:45:04 51°11.623 2°46.624 3.9 337 15.5 102270 79
2006-06-29 07:45:10 51°11.612 2°46.591 3.9 339 15.5 102270 79
2006-06-29 07:45:14 51°11.604 2°46.568 3.9 336 15.5 102270 79
2006-06-29 07:45:20 51°11.594 2°46.535 4 338 15.5 102270 79
2006-06-29 07:45:24 51°11.587 2°46.513 3.9 338 15.5 102270 79
2006-06-29 07:45:28 51°11.579 2°46.491 3.7 341 15.5 102270 79
2006-06-29 07:45:34 51°11.568 2°46.457 3.7 338 15.5 102270 79
2006-06-29 07:45:40 51°11.558 2°46.423 3.5 340 15.5 102270 79
2006-06-29 07:45:43 51°11.552 2°46.407 3.6 336 15.5 102270 79
2006-06-29 07:45:48 51°11.543 2°46.378 3.7 340 15.5 102270 79
2006-06-29 07:45:54 51°11.534 2°46.344 3.7 341 15.5 102270 79
2006-06-29 07:46:00 51°11.523 2°46.31 4.4 343 15.5 102270 79
2006-06-29 07:46:04 51°11.518 2°46.286 4.2 346 15.5 102270 79
2006-06-29 07:46:09 51°11.509 2°46.258 3.8 343 15.5 102270 79
2006-06-29 07:46:14 51°11.501 2°46.229 3.8 344 15.5 102270 79
2006-06-29 07:46:20 51°11.491 2°46.196 4 284 15.5 102270 79
2006-06-29 07:46:24 51°11.485 2°46.172 4.3 345 15.5 102270 79
2006-06-29 07:46:28 51°11.478 2°46.149 3.9 343 15.5 102270 79
2006-06-29 07:46:34 51°11.469 2°46.115 4.1 343 15.6 102270 79
2006-06-29 07:46:39 51°11.461 2°46.086 4.8 342 15.6 102270 79
2006-06-29 07:46:44 51°11.453 2°46.056 4.8 344 15.5 102270 79
2006-06-29 07:46:50 51°11.443 2°46.023 4.1 342 15.5 102270 79
2006-06-29 07:46:53 51°11.438 2°46.005 4.3 343 15.5 102270 79
2006-06-29 07:46:59 51°11.428 2°45.971 3.9 342 15.5 102270 79
2006-06-29 07:47:04 51°11.421 2°45.942 4.1 344 15.5 102270 79
2006-06-29 07:47:10 51°11.41 2°45.909 3.6 342 15.5 102270 79
2006-06-29 07:47:14 51°11.404 2°45.886 4.1 344 15.5 102270 79
2006-06-29 07:47:19 51°11.395 2°45.858 3.7 342 15.5 102270 79
2006-06-29 07:47:24 51°11.387 2°45.83 4 343 15.5 102270 79
2006-06-29 07:47:28 51°11.379 2°45.808 3.7 341 15.5 102270 79
2006-06-29 07:47:34 51°11.37 2°45.774 3.9 342 15.5 102270 79
2006-06-29 07:47:39 51°11.361 2°45.746 3.9 342 15.5 102270 79
2006-06-29 07:47:44 51°11.352 2°45.717 3.7 342 15.5 102270 78
2006-06-29 07:47:48 51°11.346 2°45.695 3.8 341 15.5 102270 78
2006-06-29 07:47:54 51°11.337 2°45.66 4 341 15.5 102270 79
2006-06-29 07:47:59 51°11.329 2°45.631 4.2 342 15.5 102270 79
2006-06-29 07:48:04 51°11.322 2°45.602 3.9 342 15.5 102270 79
2006-06-29 07:48:08 51°11.317 2°45.579 3.7 343 15.5 102270 79
2006-06-29 07:48:14 51°11.31 2°45.543 3.9 344 15.4 102270 79
2006-06-29 07:48:20 51°11.302 2°45.508 3.9 280 15.4 102270 79
2006-06-29 07:48:24 51°11.298 2°45.484 3.9 339 15.5 102270 79
2006-06-29 07:48:29 51°11.292 2°45.454 4.2 342 15.5 102270 79
2006-06-29 07:48:34 51°11.287 2°45.424 3.9 341 15.5 102280 79
2006-06-29 07:48:39 51°11.281 2°45.394 4.1 342 15.5 102280 79
2006-06-29 07:48:44 51°11.276 2°45.364 4.5 342 15.5 102280 79
2006-06-29 07:48:50 51°11.269 2°45.328 5.1 345 15.5 102280 79
2006-06-29 07:48:54 51°11.265 2°45.304 4.9 343 15.5 102270 79
2006-06-29 07:48:59 51°11.259 2°45.273 5 342 15.5 102270 79
2006-06-29 07:49:04 51°11.253 2°45.243 5 344 15.5 102270 79
2006-06-29 07:49:10 51°11.247 2°45.207 4.3 340 15.5 102270 79
2006-06-29 07:49:14 51°11.242 2°45.183 4.4 342 15.5 102270 80
2006-06-29 07:49:18 51°11.238 2°45.158 4.8 340 15.5 102270 80
2006-06-29 07:49:24 51°11.231 2°45.122 5.2 338 15.5 102270 80
2006-06-29 07:49:28 51°11.227 2°45.098 4.5 343 15.5 102270 80
2006-06-29 07:49:34 51°11.22 2°45.062 4.4 340 15.5 102270 80
2006-06-29 07:49:39 51°11.215 2°45.032 4.6 341 15.5 102270 80
2006-06-29 07:49:43 51°11.21 2°45.007 4.5 343 15.5 102270 80
2006-06-29 07:49:48 51°11.205 2°44.977 4.5 341 15.5 102270 80
2006-06-29 07:49:54 51°11.197 2°44.941 4.2 340 15.5 102270 80
2006-06-29 07:50:00 51°11.191 2°44.905 4.4 341 15.5 102270 80
2006-06-29 07:50:04 51°11.186 2°44.881 4.3 340 15.5 102270 80
2006-06-29 07:50:09 51°11.18 2°44.851 4.1 338 15.5 102270 80
2006-06-29 07:50:13 51°11.175 2°44.827 4.4 340 15.5 102270 80
2006-06-29 07:50:19 51°11.168 2°44.791 4.3 278 15.5 102270 80
2006-06-29 07:50:24 51°11.162 2°44.761 4.3 340 15.5 102280 79
2006-06-29 07:50:29 51°11.156 2°44.731 5.1 341 15.5 102280 79
2006-06-29 07:50:33 51°11.151 2°44.706 5.3 344 15.5 102270 79
2006-06-29 07:50:39 51°11.144 2°44.671 4.4 342 15.5 102270 79
2006-06-29 07:50:44 51°11.138 2°44.641 4.7 343 15.5 102280 80
2006-06-29 07:50:49 51°11.131 2°44.611 5 343 15.5 102280 80
2006-06-29 07:50:54 51°11.125 2°44.581 4.6 340 15.5 102280 80
2006-06-29 07:51:00 51°11.118 2°44.545 4.3 339 15.5 102280 80
2006-06-29 07:51:04 51°11.113 2°44.521 4.8 342 15.5 102280 80
2006-06-29 07:51:10 51°11.106 2°44.484 4.7 338 15.5 102280 80
2006-06-29 07:51:14 51°11.102 2°44.46 4.8 341 15.5 102280 80
2006-06-29 07:51:19 51°11.096 2°44.43 4.9 340 15.5 102280 80
2006-06-29 07:51:24 51°11.09 2°44.4 4.9 344 15.5 102280 80
2006-06-29 07:51:30 51°11.083 2°44.364 4.6 340 15.5 102280 80
2006-06-29 07:51:33 51°11.079 2°44.346 4.5 342 15.5 102280 80
2006-06-29 07:51:39 51°11.071 2°44.31 4.4 341 15.5 102280 80
2006-06-29 07:51:44 51°11.064 2°44.28 3.9 339 15.5 102280 80
2006-06-29 07:51:50 51°11.057 2°44.245 3.8 340 15.5 102280 80
2006-06-29 07:51:54 51°11.051 2°44.221 4.2 338 15.5 102280 80
2006-06-29 07:51:59 51°11.046 2°44.19 4.4 337 15.5 102280 80
2006-06-29 07:52:04 51°11.039 2°44.161 4.1 340 15.5 102280 79
2006-06-29 07:52:10 51°11.032 2°44.124 4.3 342 15.5 102280 79
2006-06-29 07:52:14 51°11.028 2°44.1 4.7 345 15.5 102280 79
2006-06-29 07:52:19 51°11.022 2°44.071 4.7 279 15.5 102280 79
2006-06-29 07:52:24 51°11.017 2°44.04 4.7 342 15.5 102280 79
2006-06-29 07:52:29 51°11.01 2°44.01 4.6 343 15.5 102280 79
2006-06-29 07:52:33 51°11.006 2°43.986 4.5 341 15.5 102280 79
2006-06-29 07:52:39 51°10.998 2°43.95 5.1 345 15.5 102280 79
2006-06-29 07:52:44 51°10.992 2°43.92 4.8 340 15.5 102280 79
2006-06-29 07:52:49 51°10.986 2°43.891 4.9 345 15.5 102280 79
2006-06-29 07:52:54 51°10.981 2°43.861 4.9 341 15.5 102280 79
2006-06-29 07:52:59 51°10.974 2°43.831 4.6 344 15.5 102280 79
2006-06-29 07:53:04 51°10.969 2°43.801 4.4 340 15.5 102280 79
2006-06-29 07:53:10 51°10.961 2°43.765 4.8 343 15.5 102280 79
2006-06-29 07:53:14 51°10.957 2°43.741 4.4 342 15.5 102280 79
2006-06-29 07:53:19 51°10.95 2°43.712 4.3 344 15.5 102280 79
2006-06-29 07:53:24 51°10.944 2°43.682 4.2 341 15.5 102280 79
2006-06-29 07:53:30 51°10.937 2°43.647 4.4 345 15.5 102280 79
2006-06-29 07:53:33 51°10.934 2°43.629 4.4 341 15.5 102280 79
2006-06-29 07:53:39 51°10.927 2°43.594 4.6 343 15.5 102280 79
2006-06-29 07:53:44 51°10.92 2°43.564 4.4 347 15.5 102280 78
2006-06-29 07:53:50 51°10.913 2°43.529 4.5 346 15.5 102280 78
2006-06-29 07:53:54 51°10.907 2°43.506 4 342 15.5 102280 79
2006-06-29 07:53:59 51°10.901 2°43.477 4.2 340 15.5 102280 79
2006-06-29 07:54:04 51°10.893 2°43.448 4.2 342 15.5 102280 79
2006-06-29 07:54:10 51°10.885 2°43.413 3.8 341 15.5 102280 79
2006-06-29 07:54:14 51°10.879 2°43.39 3.9 344 15.5 102280 79
2006-06-29 07:54:19 51°10.871 2°43.362 3.9 285 15.5 102280 79
2006-06-29 07:54:24 51°10.864 2°43.333 3.8 342 15.5 102280 79
2006-06-29 07:54:30 51°10.855 2°43.299 3.9 341 15.5 102280 79
2006-06-29 07:54:34 51°10.849 2°43.276 4 341 15.4 102280 78
2006-06-29 07:54:40 51°10.842 2°43.241 4.4 346 15.4 102280 78
2006-06-29 07:54:44 51°10.837 2°43.217 4 341 15.4 102280 78
2006-06-29 07:54:48 51°10.832 2°43.194 4.3 344 15.4 102280 78
2006-06-29 07:54:54 51°10.826 2°43.158 3.9 342 15.4 102280 78
2006-06-29 07:55:00 51°10.819 2°43.122 3.8 342 15.4 102280 78
2006-06-29 07:55:04 51°10.814 2°43.099 3.9 343 15.4 102280 78
2006-06-29 07:55:08 51°10.809 2°43.076 4.2 340 15.4 102280 78
2006-06-29 07:55:14 51°10.8 2°43.04 4 341 15.4 102280 78
2006-06-29 07:55:20 51°10.792 2°43.005 3.7 342 15.4 102280 78
2006-06-29 07:55:24 51°10.786 2°42.982 3.7 343 15.4 102280 78
2006-06-29 07:55:29 51°10.779 2°42.954 4 339 15.4 102280 78
2006-06-29 07:55:33 51°10.772 2°42.931 4.1 341 15.4 102280 79
2006-06-29 07:55:39 51°10.763 2°42.896 4.1 343 15.4 102280 79
2006-06-29 07:55:44 51°10.755 2°42.868 4.1 340 15.4 102280 79
2006-06-29 07:55:50 51°10.746 2°42.833 4.2 342 15.4 102280 79
2006-06-29 07:55:54 51°10.74 2°42.81 3.9 342 15.5 102280 79
2006-06-29 07:56:00 51°10.731 2°42.775 3.8 344 15.5 102280 79
2006-06-29 07:56:04 51°10.725 2°42.752 3.8 340 15.5 102280 79
2006-06-29 07:56:08 51°10.72 2°42.729 4.4 339 15.5 102280 79
2006-06-29 07:56:14 51°10.711 2°42.694 4 344 15.5 102280 79
2006-06-29 07:56:19 51°10.705 2°42.665 3.9 285 15.5 102280 79
2006-06-29 07:56:24 51°10.698 2°42.636 4.4 345 15.5 102280 79
2006-06-29 07:56:30 51°10.691 2°42.6 4.6 343 15.5 102280 79
2006-06-29 07:56:33 51°10.686 2°42.582 4.6 348 15.4 102280 79
2006-06-29 07:56:38 51°10.681 2°42.553 4 343 15.4 102280 79
2006-06-29 07:56:44 51°10.673 2°42.518 4.3 345 15.5 102280 79
2006-06-29 07:56:50 51°10.665 2°42.483 4 345 15.5 102280 79
2006-06-29 07:56:54 51°10.66 2°42.459 3.7 342 15.5 102280 79
2006-06-29 07:57:00 51°10.653 2°42.423 4.2 344 15.5 102280 79
2006-06-29 07:57:03 51°10.649 2°42.406 3.7 342 15.5 102280 79
2006-06-29 07:57:08 51°10.642 2°42.376 4.1 347 15.5 102280 79
2006-06-29 07:57:15 51°10.634 2°42.335 3.8 343 15.4 102280 79
2006-06-29 07:57:20 51°10.628 2°42.305 4 347 15.4 102280 79
2006-06-29 07:57:24 51°10.623 2°42.281 3.7 342 15.4 102280 79
2006-06-29 07:57:28 51°10.618 2°42.258 3.8 343 15.4 102280 79
2006-06-29 07:57:33 51°10.611 2°42.228 3.6 341 15.4 102280 79
2006-06-29 07:57:40 51°10.601 2°42.188 3.8 341 15.4 102280 79
2006-06-29 07:57:44 51°10.595 2°42.165 3.9 340 15.4 102280 79
2006-06-29 07:57:50 51°10.585 2°42.131 4 339 15.4 102280 79
2006-06-29 07:57:54 51°10.58 2°42.108 4.2 340 15.4 102280 79
2006-06-29 07:57:59 51°10.571 2°42.08 4.6 347 15.4 102280 79
2006-06-29 07:58:04 51°10.565 2°42.051 4 340 15.4 102280 79
2006-06-29 07:58:10 51°10.556 2°42.016 4.4 344 15.4 102280 79
2006-06-29 07:58:14 51°10.55 2°41.993 4.1 343 15.4 102280 79
2006-06-29 07:58:18 51°10.545 2°41.97 3.9 282 15.4 102280 79
2006-06-29 07:58:24 51°10.537 2°41.934 3.9 342 15.4 102280 80
2006-06-29 07:58:30 51°10.53 2°41.898 4.3 349 15.4 102280 80
2006-06-29 07:58:34 51°10.524 2°41.875 3.8 345 15.5 102280 80
2006-06-29 07:58:39 51°10.518 2°41.846 4 346 15.5 102280 80
2006-06-29 07:58:43 51°10.513 2°41.822 4.2 346 15.5 102280 80
2006-06-29 07:58:50 51°10.505 2°41.779 3.9 347 15.5 102280 80
2006-06-29 07:58:53 51°10.5 2°41.762 3.6 344 15.4 102280 80
2006-06-29 07:58:58 51°10.494 2°41.733 4.3 342 15.4 102280 80
2006-06-29 07:59:04 51°10.487 2°41.697 4.1 343 15.5 102280 80
2006-06-29 07:59:10 51°10.478 2°41.662 4.3 340 15.5 102280 80
2006-06-29 07:59:13 51°10.475 2°41.644 4.6 346 15.5 102280 80
2006-06-29 07:59:18 51°10.468 2°41.614 4.1 343 15.5 102280 80
2006-06-29 07:59:24 51°10.46 2°41.58 3.9 344 15.4 102280 80
2006-06-29 07:59:30 51°10.452 2°41.545 4 345 15.4 102280 80
2006-06-29 07:59:34 51°10.445 2°41.523 4.2 343 15.4 102280 80
2006-06-29 07:59:40 51°10.437 2°41.488 4.4 341 15.4 102280 80
2006-06-29 07:59:44 51°10.431 2°41.465 4.4 345 15.5 102280 80
2006-06-29 07:59:49 51°10.423 2°41.436 3.7 343 15.5 102280 80
2006-06-29 07:59:54 51°10.416 2°41.408 3.8 347 15.5 102280 80
2006-06-29 07:59:59 51°10.408 2°41.379 4.5 347 15.5 102280 80
2006-06-29 08:00:04 51°10.4 2°41.351 3.9 345 15.5 102280 80
2006-06-29 08:00:09 51°10.394 2°41.322 4.2 346 15.5 102280 80
2006-06-29 08:00:14 51°10.386 2°41.293 4.3 343 15.5 102280 80
2006-06-29 08:00:19 51°10.381 2°41.263 4.4 281 15.5 102280 80
2006-06-29 08:00:24 51°10.374 2°41.234 4.4 347 15.5 102280 80
2006-06-29 08:00:29 51°10.368 2°41.205 4.6 344 15.5 102280 80
2006-06-29 08:00:34 51°10.361 2°41.175 4.8 351 15.4 102280 80
2006-06-29 08:00:39 51°10.354 2°41.147 3.9 349 15.4 102280 80
2006-06-29 08:00:44 51°10.347 2°41.117 3.7 348 15.4 102280 80
2006-06-29 08:00:50 51°10.339 2°41.082 4 348 15.4 102280 80
2006-06-29 08:00:53 51°10.335 2°41.065 3.9 349 15.4 102280 80
2006-06-29 08:00:58 51°10.327 2°41.036 3.9 347 15.4 102280 80
2006-06-29 08:01:04 51°10.318 2°41.002 3.9 346 15.4 102280 79
2006-06-29 08:01:10 51°10.31 2°40.967 3.6 348 15.4 102280 79
2006-06-29 08:01:13 51°10.306 2°40.949 3.4 346 15.4 102280 80
2006-06-29 08:01:18 51°10.299 2°40.92 4.1 347 15.4 102280 80
2006-06-29 08:01:24 51°10.291 2°40.885 4 344 15.4 102280 80
2006-06-29 08:01:28 51°10.286 2°40.861 3.9 348 15.4 102280 80
2006-06-29 08:01:33 51°10.28 2°40.831 3.9 347 15.3 102280 79
2006-06-29 08:01:38 51°10.274 2°40.802 3.9 347 15.3 102280 79
2006-06-29 08:01:44 51°10.267 2°40.766 3.7 351 15.3 102280 80
2006-06-29 08:01:48 51°10.262 2°40.742 4.4 344 15.3 102280 80
2006-06-29 08:01:53 51°10.256 2°40.713 4.2 346 15.4 102280 80
2006-06-29 08:02:00 51°10.248 2°40.671 3.9 342 15.4 102280 80
2006-06-29 08:02:04 51°10.243 2°40.648 4 346 15.4 102280 80
2006-06-29 08:02:10 51°10.235 2°40.613 4.1 339 15.4 102280 80
2006-06-29 08:02:14 51°10.23 2°40.589 3.9 341 15.4 102280 81
2006-06-29 08:02:20 51°10.222 2°40.554 4 286 15.4 102280 81
2006-06-29 08:02:23 51°10.218 2°40.536 3.9 342 15.4 102280 80
2006-06-29 08:02:28 51°10.212 2°40.507 2.2 345 15.4 102280 80
2006-06-29 08:02:33 51°10.205 2°40.478 4.1 346 15.4 102280 80
2006-06-29 08:02:38 51°10.199 2°40.449 4.3 348 15.4 102280 80
2006-06-29 08:02:44 51°10.191 2°40.414 3.7 345 15.4 102280 80
2006-06-29 08:02:48 51°10.185 2°40.39 4.1 346 15.4 102280 80
2006-06-29 08:02:54 51°10.177 2°40.356 3.7 342 15.4 102280 80
2006-06-29 08:02:59 51°10.17 2°40.327 3.9 340 15.4 102280 80
2006-06-29 08:03:03 51°10.164 2°40.304 4.2 341 15.4 102280 80
2006-06-29 08:03:10 51°10.154 2°40.264 4.1 345 15.4 102280 80
2006-06-29 08:03:13 51°10.149 2°40.246 3.7 341 15.4 102280 80
2006-06-29 08:03:18 51°10.141 2°40.218 4.2 345 15.4 102280 80
2006-06-29 08:03:24 51°10.133 2°40.184 3.8 342 15.4 102280 80
2006-06-29 08:03:30 51°10.123 2°40.149 4.6 343 15.4 102280 80
2006-06-29 08:03:34 51°10.118 2°40.126 4.2 349 15.4 102290 80
2006-06-29 08:03:40 51°10.109 2°40.092 4.3 349 15.4 102290 80
2006-06-29 08:03:44 51°10.104 2°40.069 4.8 348 15.5 102280 80
2006-06-29 08:03:49 51°10.096 2°40.04 4.6 349 15.5 102280 80
2006-06-29 08:03:54 51°10.091 2°40.011 4.5 346 15.5 102280 80
2006-06-29 08:03:59 51°10.085 2°39.981 4.8 350 15.5 102280 80
2006-06-29 08:04:04 51°10.08 2°39.951 4.9 349 15.5 102280 80
2006-06-29 08:04:08 51°10.076 2°39.928 4.5 349 15.5 102280 80
2006-06-29 08:04:14 51°10.07 2°39.892 4.5 351 15.5 102280 80
2006-06-29 08:04:20 51°10.065 2°39.856 4.1 351 15.5 102280 80
2006-06-29 08:04:24 51°10.061 2°39.832 4.4 350 15.5 102280 80
2006-06-29 08:04:28 51°10.058 2°39.808 4 348 15.5 102280 80
2006-06-29 08:04:33 51°10.053 2°39.778 4.4 345 15.4 102280 80
2006-06-29 08:04:40 51°10.047 2°39.736 5.1 345 15.4 102280 80
2006-06-29 08:04:43 51°10.044 2°39.718 5 346 15.4 102280 80
2006-06-29 08:04:48 51°10.04 2°39.688 4.9 346 15.4 102280 80
2006-06-29 08:04:53 51°10.035 2°39.658 4.6 343 15.4 102280 80
2006-06-29 08:04:58 51°10.03 2°39.628 4.6 347 15.4 102280 80
2006-06-29 08:05:03 51°10.025 2°39.598 4.1 345 15.4 102280 80
2006-06-29 08:05:10 51°10.019 2°39.556 4.6 349 15.4 102280 80
2006-06-29 08:05:13 51°10.016 2°39.538 2.6 346 15.4 102280 80
2006-06-29 08:05:18 51°10.01 2°39.508 4.7 350 15.4 102280 80
2006-06-29 08:05:24 51°10.004 2°39.473 4.6 346 15.4 102280 80
2006-06-29 08:05:30 51°9.997 2°39.437 4.7 349 15.4 102280 80
2006-06-29 08:05:33 51°9.994 2°39.419 4.7 347 15.4 102280 80
2006-06-29 08:05:38 51°9.988 2°39.39 4.8 346 15.4 102280 80
2006-06-29 08:05:44 51°9.98 2°39.355 4.7 347 15.4 102280 80
2006-06-29 08:05:48 51°9.975 2°39.332 4.9 344 15.4 102280 80
2006-06-29 08:05:53 51°9.969 2°39.303 4.8 348 15.4 102280 80
2006-06-29 08:05:58 51°9.963 2°39.273 4.7 348 15.4 102280 80
2006-06-29 08:06:04 51°9.956 2°39.238 4.7 347 15.4 102280 81
2006-06-29 08:06:09 51°9.951 2°39.208 4.5 346 15.4 102280 81
2006-06-29 08:06:14 51°9.946 2°39.179 5 347 15.4 102280 81
2006-06-29 08:06:20 51°9.941 2°39.143 4.2 350 15.4 102280 81
2006-06-29 08:06:23 51°9.938 2°39.125 4.2 350 15.4 102280 80
2006-06-29 08:06:28 51°9.933 2°39.095 4.2 348 15.4 102280 80
2006-06-29 08:06:33 51°9.929 2°39.065 4.5 345 15.4 102280 81
2006-06-29 08:06:40 51°9.922 2°39.023 4.8 349 15.4 102280 81
2006-06-29 08:06:44 51°9.918 2°38.998 4.3 347 15.4 102280 81
2006-06-29 08:06:48 51°9.915 2°38.974 4.9 348 15.4 102280 81
2006-06-29 08:06:54 51°9.909 2°38.938 5 349 15.4 102280 81
2006-06-29 08:06:59 51°9.905 2°38.908 4.5 347 15.4 102280 81
2006-06-29 08:07:03 51°9.901 2°38.884 5 349 15.4 102280 81
2006-06-29 08:07:08 51°9.897 2°38.853 5 351 15.4 102280 81
2006-06-29 08:07:13 51°9.892 2°38.823 5 351 15.4 102280 81
2006-06-29 08:07:19 51°9.886 2°38.787 4.3 350 15.4 102280 81
2006-06-29 08:07:24 51°9.881 2°38.757 4.6 350 15.4 102280 81
2006-06-29 08:07:27 51°9.878 2°38.739 4.3 349 15.4 102280 81
2006-06-29 08:07:34 51°9.87 2°38.697 4.2 349 15.4 102280 82
2006-06-29 08:07:38 51°9.866 2°38.673 4.1 348 15.4 102280 82
2006-06-29 08:07:44 51°9.859 2°38.637 4.5 352 15.3 102280 82
2006-06-29 08:07:48 51°9.854 2°38.613 4.4 349 15.3 102280 82
2006-06-29 08:07:53 51°9.849 2°38.584 4.4 349 15.4 102280 81
2006-06-29 08:08:00 51°9.841 2°38.542 4.1 348 15.4 102280 81
2006-06-29 08:08:04 51°9.837 2°38.518 4.4 353 15.3 102280 81
2006-06-29 08:08:10 51°9.831 2°38.482 4.8 347 15.3 102280 81
2006-06-29 08:08:14 51°9.827 2°38.457 5.3 350 15.3 102280 82
2006-06-29 08:08:19 51°9.822 2°38.427 4.6 350 15.3 102280 82
2006-06-29 08:08:23 51°9.819 2°38.403 4.5 350 15.3 102280 82
2006-06-29 08:08:28 51°9.815 2°38.372 4.4 347 15.3 102280 82
2006-06-29 08:08:33 51°9.81 2°38.342 5 351 15.3 102280 82
2006-06-29 08:08:40 51°9.805 2°38.299 4.1 347 15.3 102280 82
2006-06-29 08:08:44 51°9.802 2°38.274 5.3 349 15.3 102280 81
2006-06-29 08:08:48 51°9.8 2°38.25 4.8 348 15.3 102280 81
2006-06-29 08:08:53 51°9.795 2°38.219 4.8 351 15.3 102280 81
2006-06-29 08:09:00 51°9.79 2°38.176 4.3 346 15.3 102280 81
2006-06-29 08:09:03 51°9.788 2°38.158 4.7 348 15.3 102280 82
2006-06-29 08:09:08 51°9.784 2°38.127 4.5 348 15.3 102280 82
2006-06-29 08:09:13 51°9.779 2°38.096 4.1 348 15.3 102280 82
2006-06-29 08:09:20 51°9.774 2°38.054 4.1 346 15.3 102280 82
2006-06-29 08:09:24 51°9.769 2°38.03 4 346 15.3 102280 82
2006-06-29 08:09:30 51°9.764 2°37.993 3.9 345 15.3 102280 82
2006-06-29 08:09:34 51°9.76 2°37.968 4.3 346 15.3 102280 82
2006-06-29 08:09:39 51°9.755 2°37.938 4 346 15.3 102280 82
2006-06-29 08:09:43 51°9.752 2°37.914 3.8 344 15.3 102280 82
2006-06-29 08:09:50 51°9.745 2°37.871 4.9 346 15.3 102280 82
2006-06-29 08:09:53 51°9.743 2°37.853 5 345 15.3 102280 82
2006-06-29 08:09:58 51°9.738 2°37.822 5.1 348 15.3 102280 82
2006-06-29 08:10:03 51°9.735 2°37.791 4.7 349 15.3 102280 82
2006-06-29 08:10:10 51°9.729 2°37.748 5 348 15.3 102280 82
2006-06-29 08:10:13 51°9.728 2°37.729 4.3 350 15.3 102280 83
2006-06-29 08:10:18 51°9.724 2°37.698 4.8 353 15.3 102280 83
2006-06-29 08:10:24 51°9.721 2°37.661 4.8 347 15.3 102280 83
2006-06-29 08:10:28 51°9.719 2°37.637 4.6 350 15.3 102280 83
2006-06-29 08:10:33 51°9.716 2°37.605 4.6 352 15.3 102280 83
2006-06-29 08:10:38 51°9.713 2°37.575 5.3 348 15.3 102280 83
2006-06-29 08:10:44 51°9.71 2°37.538 5.2 352 15.3 102280 82
2006-06-29 08:10:48 51°9.707 2°37.513 5 351 15.3 102280 82
2006-06-29 08:10:53 51°9.705 2°37.481 4.8 351 15.3 102280 82
2006-06-29 08:11:00 51°9.701 2°37.438 5 347 15.3 102280 82
2006-06-29 08:11:03 51°9.699 2°37.42 4.8 351 15.3 102280 82
2006-06-29 08:11:09 51°9.696 2°37.383 4.4 349 15.3 102280 82
2006-06-29 08:11:14 51°9.693 2°37.352 4.6 351 15.3 102280 82
2006-06-29 08:11:20 51°9.689 2°37.315 3.9 349 15.3 102280 82
2006-06-29 08:11:24 51°9.685 2°37.29 4.1 350 15.3 102280 82
2006-06-29 08:11:28 51°9.683 2°37.266 4.4 345 15.3 102280 82
2006-06-29 08:11:33 51°9.678 2°37.235 4.4 347 15.3 102280 82
2006-06-29 08:11:40 51°9.674 2°37.191 4 347 15.3 102280 82
2006-06-29 08:11:44 51°9.67 2°37.167 4.4 346 15.3 102280 82
2006-06-29 08:11:48 51°9.669 2°37.142 4.8 344 15.3 102280 82
2006-06-29 08:11:54 51°9.664 2°37.105 4.7 347 15.3 102280 82
2006-06-29 08:11:59 51°9.661 2°37.074 5 347 15.3 102280 82
2006-06-29 08:12:03 51°9.658 2°37.049 4.7 349 15.3 102280 82
2006-06-29 08:12:10 51°9.654 2°37.005 4.3 348 15.3 102280 82
2006-06-29 08:12:13 51°9.652 2°36.987 4.2 346 15.3 102280 82
2006-06-29 08:12:18 51°9.649 2°36.956 4.3 348 15.3 102280 82
2006-06-29 08:12:24 51°9.644 2°36.919 4.3 346 15.3 102280 82
2006-06-29 08:12:30 51°9.64 2°36.881 4.4 348 15.3 102280 82
2006-06-29 08:12:34 51°9.637 2°36.857 5.1 349 15.3 102280 81
2006-06-29 08:12:40 51°9.633 2°36.819 4.6 347 15.3 102280 81
2006-06-29 08:12:44 51°9.63 2°36.795 4.7 346 15.3 102290 81
2006-06-29 08:12:48 51°9.628 2°36.77 4.5 347 15.3 102290 81
2006-06-29 08:12:53 51°9.624 2°36.738 4.8 350 15.3 102290 82
2006-06-29 08:12:59 51°9.621 2°36.701 5.3 352 15.3 102290 82
2006-06-29 08:13:04 51°9.618 2°36.67 5 352 15.3 102280 82
2006-06-29 08:13:08 51°9.616 2°36.645 4.8 348 15.3 102280 82
2006-06-29 08:13:13 51°9.613 2°36.613 5.4 352 15.3 102290 81
2006-06-29 08:13:20 51°9.611 2°36.57 4.8 348 15.3 102290 81
2006-06-29 08:13:24 51°9.61 2°36.545 5.1 352 15.3 102290 81
2006-06-29 08:13:30 51°9.609 2°36.507 4.7 345 15.3 102290 81
2006-06-29 08:13:34 51°9.609 2°36.483 5 350 15.3 102280 81
2006-06-29 08:13:40 51°9.608 2°36.445 5.4 347 15.3 102280 81
2006-06-29 08:13:44 51°9.609 2°36.42 5.4 348 15.3 102280 81
2006-06-29 08:13:48 51°9.608 2°36.395 5 349 15.3 102280 81
2006-06-29 08:13:53 51°9.609 2°36.364 5.2 347 15.3 102290 81
2006-06-29 08:13:59 51°9.609 2°36.326 5.3 351 15.3 102290 81
2006-06-29 08:14:04 51°9.61 2°36.295 5.2 348 15.4 102280 82
2006-06-29 08:14:07 51°9.61 2°36.276 6.2 348 15.4 102280 82
2006-06-29 08:14:14 51°9.612 2°36.232 6.2 349 15.3 102280 81
2006-06-29 08:14:18 51°9.613 2°36.207 6.2 280 15.3 102280 81
2006-06-29 08:14:24 51°9.615 2°36.169 6.2 348 15.3 102290 81
2006-06-29 08:14:28 51°9.616 2°36.144 6.1 346 15.3 102290 81
2006-06-29 08:14:33 51°9.618 2°36.113 6.5 347 15.4 102290 82
2006-06-29 08:14:39 51°9.62 2°36.075 6.2 346 15.4 102290 82
2006-06-29 08:14:44 51°9.623 2°36.045 6.3 349 15.4 102290 82
2006-06-29 08:14:50 51°9.627 2°36.007 6.2 346 15.4 102290 82
2006-06-29 08:14:54 51°9.63 2°35.982 6.2 345 15.4 102280 81
2006-06-29 08:14:58 51°9.633 2°35.958 6.9 346 15.4 102280 81
2006-06-29 08:15:03 51°9.638 2°35.928 6.7 347 15.4 102290 81
2006-06-29 08:15:09 51°9.645 2°35.892 6.6 347 15.4 102290 81
2006-06-29 08:15:14 51°9.65 2°35.863 6.8 349 15.3 102280 81
2006-06-29 08:15:20 51°9.658 2°35.828 7 347 15.3 102280 81
2006-06-29 08:15:24 51°9.665 2°35.806 7.4 348 15.4 102290 81
2006-06-29 08:15:28 51°9.672 2°35.784 7.2 348 15.4 102290 81
2006-06-29 08:15:34 51°9.684 2°35.753 7.9 346 15.3 102280 81
2006-06-29 08:15:40 51°9.696 2°35.722 7.7 345 15.3 102280 81
2006-06-29 08:15:44 51°9.705 2°35.702 8.1 344 15.3 102280 81
2006-06-29 08:15:48 51°9.714 2°35.682 7.9 345 15.3 102280 81
2006-06-29 08:15:53 51°9.725 2°35.658 7.8 346 15.4 102280 82
2006-06-29 08:16:00 51°9.742 2°35.625 8.8 342 15.4 102280 82
2006-06-29 08:16:03 51°9.749 2°35.612 8.6 343 15.4 102280 82
2006-06-29 08:16:09 51°9.766 2°35.588 8.9 343 15.4 102280 82
2006-06-29 08:16:14 51°9.78 2°35.57 9.2 344 15.4 102280 81
2006-06-29 08:16:19 51°9.795 2°35.552 8.8 281 15.4 102280 81
2006-06-29 08:16:24 51°9.81 2°35.536 9.3 342 15.4 102280 81
2006-06-29 08:16:30 51°9.829 2°35.516 9.1 342 15.4 102280 81
2006-06-29 08:16:34 51°9.841 2°35.503 9.5 340 15.4 102280 81
2006-06-29 08:16:40 51°9.859 2°35.485 9.1 342 15.4 102280 81
2006-06-29 08:16:44 51°9.872 2°35.472 9.1 341 15.4 102270 81
2006-06-29 08:16:48 51°9.885 2°35.462 8.8 342 15.4 102270 81
2006-06-29 08:16:54 51°9.904 2°35.447 9.1 339 15.4 102280 81
2006-06-29 08:16:59 51°9.921 2°35.435 9 339 15.4 102280 81
2006-06-29 08:17:04 51°9.937 2°35.425 9.3 340 15.5 102270 81
2006-06-29 08:17:10 51°9.958 2°35.413 9.7 339 15.5 102270 81
2006-06-29 08:17:14 51°9.971 2°35.405 10.3 340 15.5 102280 81
2006-06-29 08:17:20 51°9.991 2°35.395 9.7 338 15.5 102280 81
2006-06-29 08:17:24 51°10.005 2°35.389 10 339 15.5 102280 81
2006-06-29 08:17:28 51°10.018 2°35.385 10.1 338 15.5 102280 81
2006-06-29 08:17:34 51°10.038 2°35.379 9.9 338 15.6 102280 81
2006-06-29 08:17:40 51°10.058 2°35.377 9.7 338 15.6 102280 81
2006-06-29 08:17:44 51°10.071 2°35.375 9.2 338 15.6 102270 81
2006-06-29 08:17:50 51°10.091 2°35.376 9.4 337 15.6 102270 81
2006-06-29 08:17:54 51°10.104 2°35.378 9.6 335 15.6 102270 80
2006-06-29 08:18:00 51°10.123 2°35.384 10 334 15.6 102270 80
2006-06-29 08:18:03 51°10.132 2°35.387 9.9 333 15.6 102280 80
2006-06-29 08:18:10 51°10.154 2°35.397 9.3 334 15.6 102280 80
2006-06-29 08:18:14 51°10.167 2°35.403 9.6 335 15.6 102270 80
2006-06-29 08:18:19 51°10.182 2°35.412 9.4 335 15.6 102270 80
2006-06-29 08:18:23 51°10.194 2°35.418 9.7 334 15.7 102280 80
2006-06-29 08:18:28 51°10.21 2°35.429 9.8 334 15.7 102280 80
2006-06-29 08:18:34 51°10.227 2°35.441 10.1 334 15.7 102280 80
2006-06-29 08:18:39 51°10.242 2°35.452 10.1 333 15.7 102280 80
2006-06-29 08:18:44 51°10.257 2°35.464 10.3 334 15.7 102280 80
2006-06-29 08:18:48 51°10.269 2°35.472 10.1 333 15.7 102280 80
2006-06-29 08:18:54 51°10.287 2°35.486 10 333 15.7 102270 80
2006-06-29 08:18:59 51°10.302 2°35.497 10.2 334 15.7 102270 80
2006-06-29 08:19:04 51°10.316 2°35.509 9.7 333 15.7 102280 80
2006-06-29 08:19:10 51°10.334 2°35.524 10.6 332 15.7 102280 80
2006-06-29 08:19:14 51°10.345 2°35.533 10.6 332 15.7 102280 80
2006-06-29 08:19:20 51°10.363 2°35.547 10.1 281 15.7 102280 80
2006-06-29 08:19:24 51°10.375 2°35.557 10.2 332 15.8 102290 80
2006-06-29 08:19:29 51°10.389 2°35.568 9.8 332 15.8 102290 80
2006-06-29 08:19:34 51°10.404 2°35.58 10.4 330 15.8 102280 80
2006-06-29 08:19:39 51°10.419 2°35.591 10.3 335 15.8 102280 80
2006-06-29 08:19:44 51°10.434 2°35.602 10.4 335 15.8 102280 80
2006-06-29 08:19:50 51°10.451 2°35.615 9.5 334 15.8 102280 80
2006-06-29 08:19:54 51°10.463 2°35.623 9.6 334 15.8 102270 80
2006-06-29 08:20:00 51°10.481 2°35.636 10.2 334 15.8 102270 80
2006-06-29 08:20:03 51°10.49 2°35.643 10.4 333 15.8 102270 79
2006-06-29 08:20:08 51°10.505 2°35.655 11 334 15.8 102270 79
2006-06-29 08:20:14 51°10.522 2°35.668 10.3 333 15.8 102280 79
2006-06-29 08:20:19 51°10.536 2°35.681 10.6 283 15.8 102280 79
2006-06-29 08:20:23 51°10.548 2°35.69 10.9 334 15.8 102280 79
2006-06-29 08:20:28 51°10.562 2°35.703 10.4 333 15.8 102280 79
2006-06-29 08:20:34 51°10.579 2°35.717 10.5 334 15.8 102280 79
2006-06-29 08:20:40 51°10.596 2°35.732 10.4 334 15.8 102280 79
2006-06-29 08:20:44 51°10.608 2°35.742 9.9 334 15.8 102280 79
2006-06-29 08:20:48 51°10.62 2°35.751 10.4 334 15.8 102280 79
2006-06-29 08:20:54 51°10.637 2°35.765 11.1 334 15.8 102270 79
2006-06-29 08:20:59 51°10.652 2°35.775 10.2 334 15.8 102270 79
2006-06-29 08:21:04 51°10.666 2°35.786 10.3 333 15.8 102280 79
2006-06-29 08:21:10 51°10.684 2°35.799 10.2 334 15.8 102280 79
2006-06-29 08:21:14 51°10.696 2°35.807 9.6 333 15.8 102280 79
2006-06-29 08:21:19 51°10.712 2°35.816 9.8 333 15.8 102280 79
2006-06-29 08:21:24 51°10.727 2°35.825 9.4 333 15.8 102280 79
2006-06-29 08:21:30 51°10.745 2°35.836 10.1 334 15.8 102280 79
2006-06-29 08:21:34 51°10.758 2°35.844 10 334 15.9 102280 79
2006-06-29 08:21:39 51°10.773 2°35.853 10.2 334 15.9 102280 79
2006-06-29 08:21:44 51°10.788 2°35.863 9.9 334 15.8 102280 79
2006-06-29 08:21:48 51°10.8 2°35.871 10.2 333 15.8 102280 79
2006-06-29 08:21:54 51°10.817 2°35.886 10.4 334 15.9 102280 79
2006-06-29 08:22:00 51°10.834 2°35.901 10.2 333 15.9 102280 79
2006-06-29 08:22:04 51°10.845 2°35.912 10 332 15.9 102280 79
2006-06-29 08:22:07 51°10.854 2°35.919 10.4 332 15.9 102280 79
2006-06-29 08:22:14 51°10.873 2°35.938 10.3 332 15.9 102280 79
2006-06-29 08:22:20 51°10.889 2°35.954 10.9 286 15.9 102280 79
2006-06-29 08:22:23 51°10.897 2°35.962 10.3 334 15.9 102280 79
2006-06-29 08:22:30 51°10.917 2°35.981 10.2 335 15.9 102280 79
2006-06-29 08:22:34 51°10.928 2°35.993 10.2 334 15.9 102280 79
2006-06-29 08:22:40 51°10.944 2°36.009 10.1 334 15.9 102280 79
2006-06-29 08:22:44 51°10.955 2°36.02 10.3 332 15.9 102280 79
2006-06-29 08:22:50 51°10.972 2°36.036 10.2 332 15.9 102280 79
2006-06-29 08:22:54 51°10.983 2°36.047 10.2 332 15.9 102270 79
2006-06-29 08:23:00 51°11 2°36.063 9.7 332 15.9 102270 79
2006-06-29 08:23:04 51°11.01 2°36.073 9.8 333 15.9 102280 78
2006-06-29 08:23:08 51°11.022 2°36.083 10 331 15.9 102280 78
2006-06-29 08:23:14 51°11.039 2°36.098 9.7 332 15.9 102280 78
2006-06-29 08:23:19 51°11.053 2°36.111 10.1 332 15.9 102280 78
2006-06-29 08:23:24 51°11.067 2°36.124 10.1 331 15.9 102280 78
2006-06-29 08:23:30 51°11.084 2°36.14 10.4 332 15.9 102280 78
2006-06-29 08:23:34 51°11.095 2°36.151 10 332 15.9 102280 79
2006-06-29 08:23:38 51°11.106 2°36.162 10.2 331 15.9 102280 79
2006-06-29 08:23:44 51°11.122 2°36.179 10.4 332 15.9 102280 79
2006-06-29 08:23:48 51°11.133 2°36.19 10.2 334 15.9 102280 79
2006-06-29 08:23:54 51°11.149 2°36.207 10 333 15.9 102280 79
2006-06-29 08:23:59 51°11.163 2°36.221 10.7 333 15.9 102280 79
2006-06-29 08:24:04 51°11.176 2°36.235 9.9 332 15.9 102280 79
2006-06-29 08:24:10 51°11.192 2°36.252 10.1 332 15.9 102280 79
2006-06-29 08:24:14 51°11.203 2°36.264 10.3 332 15.9 102280 79
2006-06-29 08:24:20 51°11.22 2°36.28 10.2 283 15.9 102280 79
2006-06-29 08:24:24 51°11.23 2°36.291 9.6 333 15.9 102280 79
2006-06-29 08:24:28 51°11.241 2°36.302 9.9 333 15.9 102280 79
2006-06-29 08:24:35 51°11.26 2°36.321 10.1 333 15.9 102280 78
2006-06-29 08:24:40 51°11.274 2°36.335 10.5 332 15.9 102280 78
2006-06-29 08:24:44 51°11.285 2°36.346 9.7 332 15.9 102270 78
2006-06-29 08:24:49 51°11.299 2°36.36 9.7 331 15.9 102270 78
2006-06-29 08:24:54 51°11.312 2°36.375 10.4 331 15.9 102280 79
2006-06-29 08:24:59 51°11.326 2°36.388 10.4 329 15.9 102280 79
2006-06-29 08:25:04 51°11.339 2°36.403 10.1 331 16 102270 79
2006-06-29 08:25:08 51°11.35 2°36.414 10.3 331 16 102270 79
2006-06-29 08:25:14 51°11.367 2°36.429 9.8 332 16 102280 79
2006-06-29 08:25:20 51°11.384 2°36.444 9.6 333 16 102280 79
2006-06-29 08:25:24 51°11.395 2°36.454 10.2 333 16 102270 79
2006-06-29 08:25:30 51°11.412 2°36.468 10.3 334 16 102270 79
2006-06-29 08:25:34 51°11.424 2°36.477 10 333 16 102280 79
2006-06-29 08:25:39 51°11.438 2°36.489 10 332 16 102280 79
2006-06-29 08:25:44 51°11.453 2°36.501 10 332 16 102280 79
2006-06-29 08:25:48 51°11.464 2°36.51 10 331 16 102280 79
2006-06-29 08:25:54 51°11.481 2°36.525 10.5 332 16 102280 79
2006-06-29 08:25:59 51°11.495 2°36.537 10.7 333 16 102280 79
2006-06-29 08:26:04 51°11.509 2°36.551 10.6 332 16 102270 79
2006-06-29 08:26:10 51°11.525 2°36.567 10.5 332 16 102270 79
2006-06-29 08:26:14 51°11.536 2°36.578 10.9 332 16 102280 79
2006-06-29 08:26:19 51°11.55 2°36.592 10.7 283 16 102280 79
2006-06-29 08:26:23 51°11.56 2°36.603 10.7 333 16 102270 79
2006-06-29 08:26:28 51°11.574 2°36.618 10.8 333 16 102270 79
2006-06-29 08:26:34 51°11.59 2°36.635 10.9 333 16 102270 79
2006-06-29 08:26:40 51°11.606 2°36.651 9.9 330 16 102270 79
2006-06-29 08:26:44 51°11.617 2°36.661 10.4 331 16 102280 79
2006-06-29 08:26:48 51°11.628 2°36.672 10.6 333 16 102280 79
2006-06-29 08:26:54 51°11.645 2°36.687 11 333 16 102280 79
2006-06-29 08:27:00 51°11.662 2°36.702 10.3 333 16 102280 79
2006-06-29 08:27:04 51°11.673 2°36.712 10.8 333 16 102270 79
2006-06-29 08:27:10 51°11.69 2°36.727 10.5 333 16 102270 79
2006-06-29 08:27:14 51°11.702 2°36.737 10.7 332 16 102280 79
2006-06-29 08:27:20 51°11.718 2°36.752 10.1 331 16 102280 79
2006-06-29 08:27:23 51°11.727 2°36.759 10.4 332 16 102280 78
2006-06-29 08:27:30 51°11.746 2°36.778 10.9 331 16 102280 78
2006-06-29 08:27:34 51°11.757 2°36.79 11 330 16 102280 79
2006-06-29 08:27:39 51°11.77 2°36.804 10.7 332 16 102280 79
2006-06-29 08:27:43 51°11.781 2°36.815 10.5 332 16 102280 79
2006-06-29 08:27:48 51°11.794 2°36.829 10.8 333 16 102280 79
2006-06-29 08:27:54 51°11.81 2°36.847 10.2 332 16 102280 79
2006-06-29 08:28:00 51°11.826 2°36.863 10.1 333 16 102280 79
2006-06-29 08:28:04 51°11.837 2°36.874 10.2 334 16 102280 79
2006-06-29 08:28:10 51°11.853 2°36.891 10.4 331 16 102280 79
2006-06-29 08:28:14 51°11.864 2°36.902 11 333 16 102280 78
2006-06-29 08:28:19 51°11.877 2°36.915 11.5 276 16 102280 78
2006-06-29 08:28:23 51°11.888 2°36.927 10.8 333 16 102280 78
2006-06-29 08:28:30 51°11.907 2°36.947 10.8 333 16 102280 78
2006-06-29 08:28:34 51°11.918 2°36.958 11.5 334 16 102280 78
2006-06-29 08:28:40 51°11.934 2°36.974 10.7 333 16 102280 78
2006-06-29 08:28:43 51°11.942 2°36.983 10.6 332 16 102280 78
2006-06-29 08:28:48 51°11.956 2°36.996 10.8 333 16 102280 78
2006-06-29 08:28:54 51°11.972 2°37.013 10.4 331 16 102280 78
2006-06-29 08:28:59 51°11.985 2°37.026 10.3 331 16 102280 78
2006-06-29 08:29:03 51°11.996 2°37.038 9.6 331 16 102270 78
2006-06-29 08:29:08 51°12.01 2°37.051 10.5 333 16 102270 78
2006-06-29 08:29:14 51°12.027 2°37.068 10 331 16 102280 78
2006-06-29 08:29:20 51°12.043 2°37.084 10.4 282 16 102280 78
2006-06-29 08:29:24 51°12.054 2°37.095 10.3 331 16 102280 78
2006-06-29 08:29:30 51°12.07 2°37.111 10.7 330 16 102280 78
2006-06-29 08:29:34 51°12.081 2°37.122 10.4 332 16 102280 79
2006-06-29 08:29:39 51°12.094 2°37.135 10.8 331 16 102280 79
2006-06-29 08:29:44 51°12.109 2°37.149 10.5 332 16.1 102280 79
2006-06-29 08:29:48 51°12.12 2°37.159 10.2 331 16.1 102280 79
2006-06-29 08:29:54 51°12.136 2°37.175 10.1 331 16 102280 78
2006-06-29 08:29:59 51°12.15 2°37.188 10 331 16 102280 78